• In Österreich
  • Länderverzeichnis
  • Für 7 Tage
  • Wassertemperatur
  • Satellitenkarten
  • Wetterkarte
  • News
  • Widgets
  • user-avatar
    Anmelden

    Stündliche Wetter Garmisch-Partenkirchen

    Heute, 26 September, Mittwoch

    Zeit Temperatur Niederschläge Wind Luftdruck Luftfeuchtigkeit
    00:00 +3°C° 0 mm 1 m/S 687 mmHg 68%
    01:00 +2°C° 0 mm 2 m/S 687 mmHg 64%
    02:00 +3°C° 0 mm 2 m/S 687 mmHg 60%
    03:00 +3°C° 0 mm 2 m/S 686 mmHg 56%
    04:00 +3°C° 0 mm 2 m/S 686 mmHg 51%
    05:00 +3°C° 0 mm 2 m/S 686 mmHg 49%
    06:00 +4°C° 0 mm 2 m/S 687 mmHg 47%
    07:00 +5°C° 0 mm 1 m/S 687 mmHg 45%
    08:00 +9°C° 0 mm 1 m/S 687 mmHg 40%
    09:00 +13°C° 0 mm 1 m/S 688 mmHg 34%
    10:00 +15°C° 0 mm 0 m/S 688 mmHg 29%
    11:00 +18°C° 0 mm 1 m/S 688 mmHg 28%
    12:00 +19°C° 0 mm 1 m/S 688 mmHg 28%
    13:00 +20°C° 0 mm 1 m/S 688 mmHg 28%
    14:00 +20°C° 0 mm 1 m/S 688 mmHg 33%
    15:00 +19°C° 0 mm 1 m/S 687 mmHg 38%
    16:00 +19°C° 0 mm 1 m/S 687 mmHg 43%
    17:00 +15°C° 0 mm 1 m/S 687 mmHg 54%
    18:00 +12°C° 0 mm 1 m/S 686 mmHg 65%
    19:00 +9°C° 0 mm 1 m/S 686 mmHg 75%
    20:00 +9°C° 0 mm 1 m/S 686 mmHg 73%
    21:00 +8°C° 0 mm 1 m/S 686 mmHg 71%
    22:00 +8°C° 0 mm 1 m/S 686 mmHg 69%
    23:00 +8°C° 0 mm 1 m/S 686 mmHg 66%

    Morgen, 27 September, Donnerstag

    Zeit Temperatur Niederschläge Wind Luftdruck Luftfeuchtigkeit
    00:00 +8°C° 0 mm 1 m/S 686 mmHg 62%
    01:00 +8°C° 0 mm 1 m/S 686 mmHg 59%
    02:00 +8°C° 0 mm 1 m/S 686 mmHg 56%
    03:00 +8°C° 0 mm 1 m/S 686 mmHg 53%
    04:00 +8°C° 0 mm 1 m/S 685 mmHg 50%
    05:00 +8°C° 0 mm 1 m/S 685 mmHg 49%
    06:00 +9°C° 0 mm 1 m/S 685 mmHg 48%
    07:00 +9°C° 0 mm 1 m/S 685 mmHg 47%
    08:00 +12°C° 0 mm 1 m/S 686 mmHg 43%
    09:00 +16°C° 0 mm 1 m/S 686 mmHg 38%
    10:00 +20°C° 0 mm 1 m/S 687 mmHg 33%
    11:00 +21°C° 0 mm 1 m/S 687 mmHg 33%
    12:00 +22°C° 0 mm 1 m/S 686 mmHg 32%
    13:00 +23°C° 0 mm 1 m/S 686 mmHg 32%
    14:00 +22°C° 0 mm 1 m/S 685 mmHg 37%
    15:00 +22°C° 0 mm 1 m/S 685 mmHg 41%
    16:00 +21°C° 0 mm 1 m/S 684 mmHg 46%
    17:00 +18°C° 0 mm 1 m/S 683 mmHg 56%
    18:00 +14°C° 0 mm 1 m/S 683 mmHg 66%
    19:00 +11°C° 0 mm 1 m/S 682 mmHg 76%
    20:00 +11°C° 0 mm 1 m/S 682 mmHg 76%
    21:00 +10°C° 0 mm 1 m/S 682 mmHg 76%
    22:00 +10°C° 0 mm 1 m/S 682 mmHg 75%
    23:00 +10°C° 0 mm 1 m/S 681 mmHg 75%

    übermorgen, 28 September, Freitag

    Zeit Temperatur Niederschläge Wind Luftdruck Luftfeuchtigkeit
    00:00 +10°C° 0 mm 1 m/S 681 mmHg 74%
    01:00 +10°C° 0 mm 1 m/S 680 mmHg 73%
    02:00 +9°C° 0 mm 1 m/S 680 mmHg 72%
    03:00 +9°C° 0 mm 1 m/S 679 mmHg 71%
    04:00 +8°C° 0 mm 2 m/S 679 mmHg 71%
    05:00 +9°C° 0 mm 1 m/S 679 mmHg 69%
    06:00 +9°C° 0 mm 1 m/S 679 mmHg 68%
    07:00 +10°C° 0 mm 1 m/S 679 mmHg 67%
    08:00 +12°C° 0 mm 1 m/S 679 mmHg 61%
    09:00 +15°C° 0 mm 1 m/S 679 mmHg 55%
    10:00 +19°C° 0 mm 1 m/S 680 mmHg 48%
    11:00 +19°C° 0 mm 1 m/S 680 mmHg 48%
    12:00 +19°C° 0 mm 2 m/S 679 mmHg 48%
    13:00 +20°C° 0 mm 2 m/S 679 mmHg 48%
    14:00 +19°C° 0 mm 2 m/S 678 mmHg 52%
    15:00 +19°C° 0 mm 2 m/S 678 mmHg 57%
    16:00 +18°C° 0 mm 2 m/S 677 mmHg 61%
    17:00 +16°C° 0 mm 2 m/S 677 mmHg 72%
    18:00 +14°C° 0 mm 1 m/S 677 mmHg 82%
    19:00 +12°C° 0 mm 1 m/S 677 mmHg 92%
    20:00 +12°C° 0.1 mm 1 m/S 677 mmHg 92%
    21:00 +12°C° 0.1 mm 1 m/S 677 mmHg 92%
    22:00 +12°C° 0.1 mm 1 m/S 677 mmHg 91%
    23:00 +11°C° 0.1 mm 1 m/S 677 mmHg 93%

    29 September, Samstag

    Zeit Temperatur Niederschläge Wind Luftdruck Luftfeuchtigkeit
    00:00 +11°C° 0.1 mm 1 m/S 677 mmHg 94%
    01:00 +11°C° 0.1 mm 1 m/S 677 mmHg 95%
    02:00 +10°C° 0.2 mm 1 m/S 677 mmHg 96%
    03:00 +10°C° 0.2 mm 1 m/S 677 mmHg 97%
    04:00 +10°C° 0.2 mm 1 m/S 677 mmHg 97%
    05:00 +9°C° 0.9 mm 1 m/S 677 mmHg 97%
    06:00 +8°C° 0.9 mm 2 m/S 677 mmHg 97%
    07:00 +8°C° 0.9 mm 2 m/S 677 mmHg 97%
    08:00 +7°C° 0.7 mm 2 m/S 677 mmHg 97%
    09:00 +7°C° 0.7 mm 2 m/S 677 mmHg 96%
    10:00 +7°C° 0.7 mm 2 m/S 677 mmHg 95%
    11:00 +7°C° 0.2 mm 2 m/S 677 mmHg 93%
    12:00 +8°C° 0.2 mm 2 m/S 677 mmHg 90%
    13:00 +8°C° 0.2 mm 2 m/S 677 mmHg 88%
    14:00 +8°C° 0.1 mm 2 m/S 677 mmHg 87%
    15:00 +8°C° 0.1 mm 2 m/S 677 mmHg 87%
    16:00 +8°C° 0.1 mm 2 m/S 677 mmHg 86%
    17:00 +7°C° 0.1 mm 2 m/S 678 mmHg 89%
    18:00 +6°C° 0.1 mm 2 m/S 678 mmHg 91%
    19:00 +6°C° 0.1 mm 2 m/S 678 mmHg 94%
    20:00 +6°C° 0 mm 1 m/S 678 mmHg 94%
    21:00 +6°C° 0 mm 1 m/S 678 mmHg 95%
    22:00 +5°C° 0 mm 1 m/S 678 mmHg 96%
    23:00 +4°C° 0 mm 1 m/S 678 mmHg 96%

    30 September, Sonntag

    Zeit Temperatur Niederschläge Wind Luftdruck Luftfeuchtigkeit
    00:00 +4°C° 0 mm 1 m/S 677 mmHg 96%
    01:00 +3°C° 0 mm 1 m/S 677 mmHg 96%
    02:00 +3°C° 0 mm 1 m/S 677 mmHg 94%
    03:00 +2°C° 0 mm 1 m/S 676 mmHg 93%
    04:00 +2°C° 0 mm 1 m/S 676 mmHg 92%
    05:00 +2°C° 0 mm 1 m/S 676 mmHg 89%
    06:00 +3°C° 0 mm 1 m/S 676 mmHg 86%
    07:00 +3°C° 0 mm 1 m/S 676 mmHg 84%
    08:00 +6°C° 0 mm 1 m/S 676 mmHg 74%
    09:00 +7°C° 0 mm 2 m/S 676 mmHg 64%
    10:00 +10°C° 0 mm 2 m/S 677 mmHg 54%
    11:00 +12°C° 0 mm 2 m/S 676 mmHg 50%
    12:00 +13°C° 0 mm 2 m/S 676 mmHg 47%
    13:00 +15°C° 0 mm 2 m/S 676 mmHg 44%
    14:00 +14°C° 0 mm 2 m/S 676 mmHg 48%
    15:00 +14°C° 0 mm 2 m/S 676 mmHg 51%
    16:00 +14°C° 0 mm 2 m/S 675 mmHg 55%
    17:00 +11°C° 0 mm 1 m/S 675 mmHg 67%
    18:00 +9°C° 0 mm 1 m/S 675 mmHg 78%
    19:00 +6°C° 0 mm 1 m/S 674 mmHg 90%
    20:00 +6°C° 0 mm 1 m/S 675 mmHg 89%
    21:00 +6°C° 0 mm 1 m/S 675 mmHg 89%
    22:00 +6°C° 0 mm 1 m/S 675 mmHg 88%
    23:00 +6°C° 0 mm 1 m/S 675 mmHg 88%

    1 Oktober, Montag

    Zeit Temperatur Niederschläge Wind Luftdruck Luftfeuchtigkeit
    00:00 +5°C° 0 mm 1 m/S 675 mmHg 88%
    01:00 +5°C° 0 mm 1 m/S 674 mmHg 88%
    02:00 +5°C° 0 mm 1 m/S 674 mmHg 88%
    03:00 +5°C° 0 mm 1 m/S 674 mmHg 88%
    04:00 +5°C° 0 mm 1 m/S 674 mmHg 89%
    05:00 +5°C° 0 mm 1 m/S 674 mmHg 88%
    06:00 +5°C° 0 mm 1 m/S 674 mmHg 87%
    07:00 +5°C° 0 mm 1 m/S 675 mmHg 86%
    08:00 +8°C° 0 mm 1 m/S 675 mmHg 78%
    09:00 +10°C° 0 mm 1 m/S 676 mmHg 69%
    10:00 +13°C° 0 mm 1 m/S 676 mmHg 60%
    11:00 +13°C° 0 mm 1 m/S 676 mmHg 58%
    12:00 +14°C° 0 mm 2 m/S 676 mmHg 56%
    13:00 +15°C° 0 mm 2 m/S 676 mmHg 54%
    14:00 +14°C° 0 mm 2 m/S 676 mmHg 59%
    15:00 +14°C° 0 mm 2 m/S 676 mmHg 63%
    16:00 +13°C° 0 mm 2 m/S 676 mmHg 68%
    17:00 +10°C° 0 mm 2 m/S 676 mmHg 76%
    18:00 +9°C° 0 mm 2 m/S 677 mmHg 84%
    19:00 +8°C° 0 mm 1 m/S 677 mmHg 93%
    20:00 +8°C° 0 mm 1 m/S 677 mmHg 93%
    21:00 +8°C° 0 mm 1 m/S 678 mmHg 93%
    22:00 +7°C° 0 mm 1 m/S 678 mmHg 93%
    23:00 +7°C° 0 mm 1 m/S 678 mmHg 93%
    Mehr zeigen